Погода в Тукакасе

Венесуэла     10°46′04″N   68°19′40″W
темп.,
°C
ветер,
м/с
пор.,
м/с
влажн.,
%
обл.,
%
осадки,
мм/ч
давл.,
гПа
погр.,
м
7 мая, пт
пт723:00+25всв6885100 1.6 1014646
02:00+25всв6885100 3.8 1012616
05:00+25всв6884100 1.3 1012646
08:00+26всв688333 2.8 1014782
11:00+26всв578276 3.3 1015764
14:00+27всв567522 3.9 1012926
17:00+27всв567999 0.4 1011802
20:00+25в5786100 1.6 1013570
8 мая, сб
сб823:00+25всв6887100 1.2 1014575
02:00+25всв6886100 3.9 1012612
05:00+25всв5787100 3.4 1013477
08:00+26в458595 7.9 1014556
11:00+27в5682100 1.9 1014665
14:00+27всв5679100 2.1 1012716
17:00+26всв5683100 0.3 1011653
20:00+26в5788100 2.9 1013491
9 мая, вс
вс923:00+26в5887100 4.9 1014477
02:00+25всв81088100 10.4 1012612
05:00+25всв5789100 5.4 1012443
08:00+25в578897 12.3 1014428
11:00+26в228350 3.1 1014250
14:00+28всв2275100 4.6 1012527
17:00+26всв5685100 3.5 1012296
20:00+25вюв8992100 9.8 1013468
10 мая, пн
пн1023:00+24в6794100 9.1 1015426
02:00+24всв4590100 14.1 1013378
05:00+25всв3586100 0.9 1013368
08:00+26всв578466 2.3 1014730
11:00+27в567893 0.6 1014836
14:00+28в767811 0.7 1011854
17:00+26в688365 0.9 1011645
20:00+26в610889 4.3 1013571
11 мая, вт
вт1123:00+26в7118798 4.7 1014582
02:00+26в7985100 5.7 1012446
05:00+25в4588100 1.8 1012326
08:00+25ююв1386100 3.0 1013279
11:00+27всв1279100 1.8 1014294
14:00+27всв66776 2.4 1012612
17:00+27всв558231 0.4 1011648
20:00+26вюв4587100 3.3 1013244